Location: Byhalia Creek
(34.8270°N, 89.8040°W)
Time: 20:28:40
(UTC+00:00)

TIMED - Pass Details

Date: 22 April 2026
Orbit: 581 x 582 km, 74.1° (Epoch: 21 May)

Event Time Altitude Azimuth Distance (km) Brightness Sun altitude
Rises 02:17:06 0° 343° (NNW) 2,807 8.7 -19.7°
Reaches altitude 10° 02:19:20 10° 343° (NNW) 1,903 7.7 -20.1°
Maximum altitude 02:23:34 88° 71° (ENE) 587 4.3 -20.9°
Enters shadow 02:24:25 57° 160° (SSE) 686 4.4 -21.0°
